| time (UTC) | temp C | wind direction | speed KPH | gust KPH | rain 1hr cm | rain 24hr cm | rain mn cm | humidity % | barometer mb |
| 20260507160600 | 15 | 328 | 0.0 | 4.8 | 0.00 | 0.20 | 0.20 | 52 | 1008.0 |
| 20260507160057 | 14 | 114 | 0.0 | 4.8 | 0.00 | 0.20 | 0.20 | 54 | 1008.2 |
| 20260507155552 | 14 | 232 | 3.2 | 4.8 | 0.00 | 0.20 | 0.20 | 55 | 1008.2 |
| 20260507155049 | 15 | 246 | 0.0 | 4.8 | 0.00 | 0.20 | 0.20 | 54 | 1008.3 |
| 20260507154546 | 14 | 263 | 0.0 | 3.2 | 0.00 | 0.20 | 0.20 | 56 | 1008.2 |
| 20260507154043 | 13 | 53 | 3.2 | 4.8 | 0.00 | 0.20 | 0.20 | 54 | 1008.3 |
| 20260507153540 | 14 | 172 | 3.2 | 3.2 | 0.00 | 0.20 | 0.20 | 58 | 1008.3 |
| 20260507153036 | 13 | 180 | 0.0 | 3.2 | 0.00 | 0.20 | 0.20 | 58 | 1008.3 |
| 20260507152532 | 13 | 184 | 3.2 | 6.4 | 0.00 | 0.20 | 0.20 | 58 | 1008.5 |
| 20260507152029 | 13 | 30 | 3.2 | 3.2 | 0.00 | 0.20 | 0.20 | 61 | 1008.3 |
| 20260507151525 | 13 | 11 | 4.8 | 6.4 | 0.00 | 0.20 | 0.20 | 60 | 1008.4 |
| 20260507151022 | 13 | 45 | 0.0 | 3.2 | 0.00 | 0.20 | 0.20 | 60 | 1008.6 |
| 20260507150519 | 13 | 248 | 3.2 | 3.2 | 0.00 | 0.20 | 0.20 | 61 | 1008.8 |
| 20260507150016 | 13 | 327 | 3.2 | 4.8 | 0.00 | 0.20 | 0.20 | 60 | 1008.7 |
| 20260507145510 | 13 | 5 | 0.0 | 4.8 | 0.00 | 0.20 | 0.20 | 60 | 1008.4 |
| 20260507145009 | 12 | 346 | 1.6 | 3.2 | 0.00 | 0.20 | 0.20 | 63 | 1008.7 |
| 20260507144505 | 12 | 126 | 0.0 | 4.8 | 0.00 | 0.20 | 0.20 | 62 | 1008.8 |
| 20260507144002 | 12 | 25 | 0.0 | 4.8 | 0.00 | 0.20 | 0.20 | 62 | 1008.9 |
| 20260507143459 | 12 | 28 | 6.4 | 6.4 | 0.00 | 0.20 | 0.20 | 61 | 1009.0 |
| 20260507142956 | 12 | 60 | 0.0 | 6.4 | 0.00 | 0.20 | 0.20 | 62 | 1008.8 |
| 20260507142452 | 12 | 32 | 0.0 | 3.2 | 0.00 | 0.20 | 0.20 | 62 | 1009.4 |
| 20260507141949 | 12 | 102 | 0.0 | 8.0 | 0.00 | 0.20 | 0.20 | 62 | 1009.4 |
| 20260507141445 | 12 | 165 | 0.0 | 1.6 | 0.00 | 0.20 | 0.20 | 61 | 1009.0 |
| 20260507140942 | 12 | 29 | 4.8 | 6.4 | 0.00 | 0.20 | 0.20 | 62 | 1009.1 |
| 20260507140438 | 12 | 41 | 3.2 | 9.7 | 0.00 | 0.20 | 0.20 | 63 | 1009.3 |
| 20260507135936 | 12 | 56 | 3.2 | 6.4 | 0.00 | 0.20 | 0.20 | 61 | 1009.4 |
| 20260507135433 | 12 | 23 | 3.2 | 6.4 | 0.00 | 0.20 | 0.20 | 63 | 1009.3 |
| 20260507134930 | 12 | 52 | 6.4 | 8.0 | 0.00 | 0.20 | 0.20 | 62 | 1009.3 |
| 20260507134427 | 12 | 29 | 0.0 | 6.4 | 0.00 | 0.20 | 0.20 | 63 | 1009.5 |
| 20260507133923 | 12 | 11 | 3.2 | 6.4 | 0.00 | 0.20 | 0.20 | 62 | 1009.7 |
| 20260507133419 | 12 | 11 | 1.6 | 1.6 | 0.00 | 0.20 | 0.20 | 66 | 1009.7 |
| 20260507132917 | 12 | 0 | 3.2 | 3.2 | 0.00 | 0.20 | 0.20 | 65 | 1009.7 |
| 20260507132413 | 12 | 75 | 0.0 | 1.6 | 0.00 | 0.20 | 0.20 | 65 | 1009.7 |
| 20260507131910 | 12 | 157 | 0.0 | 3.2 | 0.00 | 0.20 | 0.20 | 64 | 1009.5 |
| 20260507131407 | 12 | 68 | 3.2 | 6.4 | 0.00 | 0.20 | 0.20 | 64 | 1009.5 |
| 20260507130904 | 12 | 56 | 3.2 | 4.8 | 0.00 | 0.20 | 0.20 | 63 | 1009.5 |
| 20260507130401 | 12 | 180 | 0.0 | 12.9 | 0.00 | 0.20 | 0.20 | 63 | 1009.3 |
| 20260507125900 | 12 | 53 | 4.8 | 8.0 | 0.00 | 0.20 | 0.20 | 65 | 1009.0 |
| 20260507125357 | 12 | 41 | 8.0 | 8.0 | 0.00 | 0.20 | 0.20 | 64 | 1009.3 |
| 20260507124854 | 12 | 12 | 0.0 | 8.0 | 0.00 | 0.20 | 0.20 | 65 | 1009.4 |
| 20260507124350 | 12 | 29 | 4.8 | 6.4 | 0.00 | 0.20 | 0.20 | 65 | 1009.4 |
| 20260507123849 | 12 | 159 | 3.2 | 4.8 | 0.00 | 0.20 | 0.20 | 65 | 1009.1 |
| 20260507123345 | 12 | 146 | 0.0 | 8.0 | 0.00 | 0.20 | 0.20 | 66 | 1009.0 |
| 20260507122842 | 12 | 0 | 0.0 | 4.8 | 0.00 | 0.20 | 0.20 | 68 | 1009.0 |
| 20260507122337 | 12 | 32 | 4.8 | 9.7 | 0.00 | 0.20 | 0.20 | 66 | 1009.1 |
| 20260507121834 | 12 | 21 | 3.2 | 8.0 | 0.00 | 0.20 | 0.20 | 66 | 1009.1 |
| 20260507121329 | 12 | 270 | 0.0 | 8.0 | 0.00 | 0.20 | 0.20 | 67 | 1009.4 |
| 20260507120826 | 12 | 7 | 1.6 | 8.0 | 0.00 | 0.20 | 0.20 | 65 | 1009.1 |
| 20260507120322 | 12 | 37 | 0.0 | 4.8 | 0.00 | 0.20 | 0.20 | 67 | 1009.0 |
| 20260507115819 | 12 | 87 | 6.4 | 6.4 | 0.00 | 0.20 | 0.20 | 68 | 1009.3 |
| 20260507115314 | 12 | 90 | 0.0 | 6.4 | 0.00 | 0.20 | 0.20 | 68 | 1009.1 |
| 20260507114810 | 12 | 19 | 4.8 | 8.0 | 0.00 | 0.20 | 0.20 | 69 | 1009.1 |
| 20260507114308 | 12 | 33 | 3.2 | 9.7 | 0.00 | 0.20 | 0.20 | 71 | 1008.9 |
| 20260507113805 | 12 | 342 | 1.6 | 14.5 | 0.00 | 0.20 | 0.20 | 69 | 1008.8 |
| 20260507113302 | 12 | 342 | 1.6 | 8.0 | 0.00 | 0.20 | 0.20 | 75 | 1008.8 |
| 20260507112800 | 12 | 68 | 4.8 | 8.0 | 0.00 | 0.20 | 0.20 | 77 | 1008.4 |
| 20260507112256 | 12 | 90 | 1.6 | 8.0 | 0.00 | 0.20 | 0.20 | 78 | 1008.6 |
| 20260507111755 | 12 | 355 | 0.0 | 8.0 | 0.00 | 0.20 | 0.20 | 80 | 1008.3 |
| 20260507111250 | 12 | 36 | 0.0 | 6.4 | 0.00 | 0.20 | 0.20 | 79 | 1008.5 |
| 20260507110747 | 12 | 172 | 0.0 | 1.6 | 0.00 | 0.20 | 0.20 | 80 | 1008.5 |
| 20260507110243 | 12 | 63 | 3.2 | 4.8 | 0.00 | 0.20 | 0.20 | 80 | 1008.4 |
| 20260507105740 | 12 | 45 | 3.2 | 8.0 | 0.00 | 0.20 | 0.20 | 81 | 1008.5 |
| 20260507105236 | 12 | 33 | 4.8 | 6.4 | 0.00 | 0.20 | 0.20 | 83 | 1008.3 |
| 20260507104734 | 12 | 140 | 0.0 | 3.2 | 0.00 | 0.20 | 0.20 | 84 | 1008.5 |
| 20260507104230 | 12 | 54 | 0.0 | 3.2 | 0.00 | 0.20 | 0.20 | 85 | 1008.4 |
| 20260507103726 | 12 | 105 | 1.6 | 3.2 | 0.00 | 0.20 | 0.20 | 86 | 1008.5 |
| 20260507103223 | 12 | 126 | 1.6 | 1.6 | 0.00 | 0.20 | 0.20 | 87 | 1008.2 |
| 20260507102719 | 12 | 90 | 0.0 | 6.4 | 0.00 | 0.20 | 0.20 | 87 | 1008.2 |
| 20260507102216 | 12 | 106 | 0.0 | 1.6 | 0.00 | 0.20 | 0.20 | 87 | 1008.3 |
| 20260507101712 | 12 | 157 | 0.0 | 1.6 | 0.00 | 0.20 | 0.20 | 87 | 1008.0 |
| 20260507101207 | 12 | 90 | 0.0 | 1.6 | 0.00 | 0.20 | 0.20 | 87 | 1007.9 |
| 20260507100705 | 12 | 99 | 0.0 | 0.0 | 0.00 | 0.20 | 0.20 | 87 | 1008.2 |
| 20260507100203 | 12 | 90 | 0.0 | 3.2 | 0.00 | 0.20 | 0.20 | 87 | 1007.9 |
| 20260507095701 | 12 | 66 | 0.0 | 4.8 | 0.00 | 0.20 | 0.20 | 87 | 1007.9 |
| 20260507095157 | 12 | 325 | 0.0 | 8.0 | 0.00 | 0.20 | 0.20 | 88 | 1008.0 |
| 20260507094654 | 12 | 117 | 1.6 | 3.2 | 0.00 | 0.20 | 0.20 | 89 | 1008.0 |
| 20260507094150 | 12 | 82 | 0.0 | 3.2 | 0.00 | 0.20 | 0.20 | 90 | 1007.8 |
| 20260507093648 | 12 | 15 | 1.6 | 1.6 | 0.00 | 0.20 | 0.20 | 90 | 1008.2 |
| 20260507093146 | 12 | 57 | 3.2 | 3.2 | 0.00 | 0.20 | 0.20 | 89 | 1007.9 |
| 20260507092643 | 12 | 49 | 0.0 | 3.2 | 0.00 | 0.20 | 0.20 | 90 | 1007.9 |
| 20260507092139 | 12 | 43 | 6.4 | 6.4 | 0.00 | 0.20 | 0.20 | 91 | 1007.7 |
| 20260507091636 | 12 | 57 | 0.0 | 3.2 | 0.00 | 0.20 | 0.20 | 91 | 1007.8 |
| 20260507091132 | 12 | 175 | 1.6 | 1.6 | 0.00 | 0.20 | 0.20 | 90 | 1007.7 |
| 20260507090628 | 12 | 20 | 4.8 | 6.4 | 0.00 | 0.20 | 0.20 | 90 | 1007.5 |
| 20260507090125 | 12 | 105 | 0.0 | 3.2 | 0.00 | 0.20 | 0.20 | 90 | 1007.6 |
| 20260507085622 | 12 | 30 | 3.2 | 4.8 | 0.00 | 0.20 | 0.20 | 90 | 1007.6 |
| 20260507085119 | 12 | 53 | 0.0 | 6.4 | 0.00 | 0.20 | 0.20 | 91 | 1007.6 |
| 20260507084615 | 12 | 60 | 0.0 | 3.2 | 0.00 | 0.20 | 0.20 | 92 | 1007.8 |
| 20260507084112 | 12 | 90 | 0.0 | 1.6 | 0.00 | 0.20 | 0.20 | 92 | 1007.8 |
| 20260507083609 | 12 | 23 | 0.0 | 3.2 | 0.00 | 0.20 | 0.20 | 92 | 1007.8 |
| 20260507083106 | 12 | 90 | 0.0 | 1.6 | 0.00 | 0.20 | 0.20 | 91 | 1007.8 |
| 20260507082602 | 12 | 105 | 0.0 | 0.0 | 0.00 | 0.20 | 0.20 | 91 | 1007.7 |
| 20260507082058 | 12 | 23 | 0.0 | 4.8 | 0.00 | 0.20 | 0.20 | 91 | 1007.8 |
| 20260507081555 | 12 | 106 | 0.0 | 0.0 | 0.00 | 0.20 | 0.20 | 91 | 1007.8 |
| 20260507081052 | 12 | 23 | 0.0 | 3.2 | 0.00 | 0.20 | 0.20 | 91 | 1007.7 |
| 20260507080548 | 12 | 154 | 0.0 | 1.6 | 0.00 | 0.20 | 0.20 | 91 | 1007.6 |
| 20260507080044 | 12 | 60 | 0.0 | 3.2 | 0.00 | 0.20 | 0.20 | 91 | 1007.5 |
| 20260507075539 | 12 | 99 | 0.0 | 0.0 | 0.00 | 0.20 | 0.20 | 91 | 1007.3 |
| 20260507075036 | 12 | 0 | 0.0 | 4.8 | 0.00 | 0.20 | 0.20 | 91 | 1007.3 |
| 20260507074533 | 12 | 61 | 0.0 | 3.2 | 0.00 | 0.20 | 0.20 | 91 | 1007.0 |
| 20260507074032 | 12 | 180 | 0.0 | 4.8 | 0.00 | 0.20 | 0.20 | 92 | 1007.1 |
| 20260507073527 | 12 | 53 | 0.0 | 3.2 | 0.00 | 0.20 | 0.20 | 91 | 1007.0 |
| 20260507073024 | 12 | 68 | 4.8 | 6.4 | 0.00 | 0.20 | 0.20 | 92 | 1007.0 |
| 20260507072521 | 12 | 98 | 0.0 | 1.6 | 0.00 | 0.20 | 0.20 | 92 | 1007.2 |
| 20260507072018 | 12 | 28 | 0.0 | 3.2 | 0.00 | 0.20 | 0.20 | 92 | 1007.2 |
| 20260507071516 | 12 | 241 | 3.2 | 4.8 | 0.00 | 0.20 | 0.20 | 92 | 1006.8 |
| 20260507071012 | 12 | 180 | 1.6 | 4.8 | 0.00 | 0.20 | 0.20 | 92 | 1007.1 |
| 20260507070509 | 12 | 200 | 0.0 | 3.2 | 0.00 | 0.20 | 0.20 | 91 | 1006.9 |
| 20260507070010 | 12 | 90 | 1.6 | 4.8 | 0.00 | 0.20 | 0.20 | 92 | 1007.1 |
| 20260507065502 | 12 | 72 | 3.2 | 11.3 | 0.00 | 0.20 | 0.20 | 92 | 1007.2 |
| 20260507065000 | 12 | 21 | 0.0 | 6.4 | 0.00 | 0.20 | 0.20 | 92 | 1007.2 |
| 20260507064458 | 12 | 17 | 3.2 | 9.7 | 0.00 | 0.20 | 0.20 | 93 | 1007.1 |
| 20260507063956 | 12 | 8 | 0.0 | 3.2 | 0.00 | 0.20 | 0.20 | 93 | 1006.8 |
| 20260507063453 | 12 | 270 | 1.6 | 9.7 | 0.00 | 0.20 | 0.20 | 94 | 1007.1 |
| 20260507062950 | 12 | 8 | 3.2 | 6.4 | 0.00 | 0.20 | 0.20 | 94 | 1007.4 |
| 20260507062447 | 12 | 8 | 0.0 | 4.8 | 0.00 | 0.20 | 0.20 | 94 | 1007.2 |
| 20260507061944 | 12 | 60 | 0.0 | 8.0 | 0.00 | 0.20 | 0.20 | 94 | 1007.1 |
| 20260507061442 | 12 | 110 | 3.2 | 6.4 | 0.00 | 0.20 | 0.20 | 95 | 1007.3 |
| 20260507060940 | 12 | 45 | 0.0 | 4.8 | 0.00 | 0.20 | 0.20 | 95 | 1007.2 |
| 20260507060437 | 12 | 56 | 3.2 | 6.4 | 0.00 | 0.20 | 0.20 | 94 | 1007.0 |
| 20260507055933 | 12 | 20 | 0.0 | 6.4 | 0.00 | 0.20 | 0.20 | 94 | 1006.8 |
| 20260507055428 | 12 | 14 | 0.0 | 4.8 | 0.00 | 0.20 | 0.20 | 94 | 1006.8 |
| 20260507054926 | 12 | 126 | 1.6 | 3.2 | 0.00 | 0.20 | 0.20 | 94 | 1006.8 |
| 20260507054421 | 13 | 270 | 0.0 | 3.2 | 0.05 | 0.20 | 0.20 | 94 | 1007.0 |
| 20260507053919 | 13 | 251 | 0.0 | 8.0 | 0.00 | 0.18 | 0.18 | 94 | 1007.0 |
| 20260507053416 | 13 | 29 | 0.0 | 8.0 | 0.05 | 0.18 | 0.18 | 94 | 1006.8 |
| 20260507052915 | 13 | 28 | 6.4 | 8.0 | 0.13 | 0.18 | 0.18 | 94 | 1007.0 |
| 20260507052412 | 13 | 26 | 0.0 | 3.2 | 0.13 | 0.18 | 0.18 | 95 | 1007.4 |
| 20260507051909 | 13 | 84 | 0.0 | 1.6 | 0.13 | 0.18 | 0.18 | 94 | 1007.1 |
| 20260507051407 | 13 | 345 | 0.0 | 3.2 | 0.05 | 0.15 | 0.15 | 94 | 1007.0 |
| 20260507050903 | 13 | 120 | 0.0 | 3.2 | 0.00 | 0.15 | 0.15 | 94 | 1007.0 |
| 20260507050400 | 13 | 29 | 1.6 | 4.8 | 0.05 | 0.15 | 0.15 | 93 | 1006.5 |
| 20260507045857 | 13 | 48 | 3.2 | 6.4 | 0.18 | 0.15 | 0.15 | 93 | 1006.8 |
| 20260507045353 | 13 | 195 | 3.2 | 3.2 | 0.30 | 0.13 | 0.13 | 93 | 1006.8 |
| 20260507044851 | 13 | 90 | 0.0 | 8.0 | 0.18 | 0.10 | 0.10 | 93 | 1006.8 |
| 20260507044347 | 14 | 63 | 0.0 | 4.8 | 0.00 | 0.08 | 0.08 | 93 | 1007.4 |
| 20260507043843 | 14 | 345 | 4.8 | 4.8 | 0.00 | 0.08 | 0.08 | 92 | 1007.0 |
| 20260507043340 | 14 | 52 | 3.2 | 6.4 | 0.05 | 0.08 | 0.08 | 92 | 1006.7 |
| 20260507042836 | 14 | 24 | 4.8 | 8.0 | 0.00 | 0.08 | 0.08 | 92 | 1006.7 |
| 20260507042332 | 15 | 8 | 0.0 | 4.8 | 0.00 | 0.08 | 0.08 | 93 | 1007.4 |
| 20260507041829 | 15 | 94 | 0.0 | 3.2 | 0.18 | 0.08 | 0.08 | 91 | 1007.7 |
| 20260507041325 | 15 | 117 | 1.6 | 3.2 | 0.36 | 0.05 | 0.05 | 90 | 1007.6 |
| 20260507040823 | 15 | 166 | 1.6 | 4.8 | 0.18 | 0.03 | 0.03 | 87 | 1007.3 |
| 20260507040319 | 15 | 11 | 6.4 | 8.0 | 0.05 | 0.00 | 0.00 | 88 | 1007.1 |
| 20260507035814 | 15 | 194 | 0.0 | 3.2 | 0.05 | 0.89 | 0.89 | 87 | 1007.0 |
| 20260507035310 | 16 | 355 | 1.6 | 3.2 | 0.13 | 0.89 | 0.89 | 86 | 1006.7 |
| 20260507034808 | 16 | 195 | 0.0 | 6.4 | 0.05 | 0.86 | 0.86 | 84 | 1006.5 |
| 20260507034305 | 16 | 36 | 4.8 | 8.0 | 0.00 | 0.86 | 0.86 | 83 | 1006.6 |
| 20260507033803 | 16 | 109 | 0.0 | 8.0 | 0.00 | 0.86 | 0.86 | 84 | 1006.5 |
| 20260507033301 | 16 | 34 | 4.8 | 8.0 | 0.00 | 0.86 | 0.86 | 84 | 1006.6 |
| 20260507032757 | 16 | 345 | 0.0 | 3.2 | 0.00 | 0.86 | 0.86 | 86 | 1006.6 |
| 20260507032253 | 17 | 187 | 3.2 | 3.2 | 0.00 | 0.86 | 0.86 | 86 | 1006.4 |
| 20260507031750 | 17 | 135 | 3.2 | 4.8 | 0.00 | 0.86 | 0.86 | 84 | 1006.3 |
| 20260507031247 | 17 | 348 | 1.6 | 6.4 | 0.00 | 0.86 | 0.86 | 84 | 1006.5 |
| 20260507030743 | 17 | 5 | 0.0 | 4.8 | 0.00 | 0.86 | 0.86 | 84 | 1006.6 |
| 20260507030241 | 17 | 279 | 0.0 | 4.8 | 0.00 | 0.86 | 0.86 | 83 | 1006.6 |
| 20260507025738 | 17 | 23 | 0.0 | 6.4 | 0.00 | 0.86 | 0.86 | 83 | 1006.1 |
| 20260507025235 | 17 | 8 | 0.0 | 4.8 | 0.00 | 0.86 | 0.86 | 82 | 1005.9 |
| 20260507024733 | 17 | 354 | 1.6 | 3.2 | 0.00 | 0.86 | 0.86 | 83 | 1005.9 |
| 20260507024230 | 17 | 346 | 0.0 | 4.8 | 0.00 | 0.86 | 0.86 | 83 | 1005.7 |
| 20260507023726 | 17 | 255 | 1.6 | 6.4 | 0.00 | 0.86 | 0.86 | 83 | 1005.7 |
| 20260507023223 | 17 | 209 | 1.6 | 4.8 | 0.00 | 0.86 | 0.86 | 84 | 1006.1 |
| 20260507022720 | 17 | 53 | 9.7 | 9.7 | 0.00 | 0.86 | 0.86 | 84 | 1006.0 |
| 20260507022216 | 17 | 20 | 0.0 | 4.8 | 0.00 | 0.86 | 0.86 | 86 | 1005.8 |
| 20260507021712 | 17 | 338 | 0.0 | 11.3 | 0.00 | 0.86 | 0.86 | 87 | 1005.8 |
| 20260507021208 | 17 | 199 | 0.0 | 4.8 | 0.00 | 0.86 | 0.86 | 88 | 1005.9 |
| 20260507020707 | 17 | 287 | 0.0 | 3.2 | 0.00 | 0.86 | 0.86 | 88 | 1005.6 |
| 20260507020202 | 17 | 90 | 0.0 | 4.8 | 0.00 | 0.86 | 0.86 | 88 | 1005.5 |
| 20260507015700 | 17 | 97 | 0.0 | 3.2 | 0.00 | 0.86 | 0.86 | 88 | 1005.4 |
| 20260507015158 | 17 | 24 | 3.2 | 4.8 | 0.00 | 0.86 | 0.86 | 88 | 1005.5 |
| 20260507014654 | 17 | 48 | 0.0 | 4.8 | 0.00 | 0.86 | 0.86 | 89 | 1005.7 |
| 20260507014150 | 17 | 58 | 0.0 | 8.0 | 0.00 | 0.86 | 0.86 | 89 | 1005.9 |
| 20260507013647 | 18 | 215 | 0.0 | 1.6 | 0.05 | 0.86 | 0.86 | 90 | 1005.7 |
| 20260507013144 | 18 | 65 | 0.0 | 4.8 | 0.18 | 0.86 | 0.86 | 90 | 1005.5 |
| 20260507012642 | 18 | 240 | 0.0 | 9.7 | 0.36 | 0.86 | 0.86 | 89 | 1005.2 |
| 20260507012137 | 18 | 262 | 0.0 | 11.3 | 0.23 | 0.84 | 0.84 | 87 | 1005.6 |
| 20260507011635 | 19 | 65 | 3.2 | 12.9 | 0.00 | 0.79 | 0.79 | 85 | 1005.7 |
| 20260507011131 | 19 | 233 | 0.0 | 3.2 | 0.00 | 0.79 | 0.79 | 86 | 1005.8 |
| 20260507010626 | 19 | 283 | 4.8 | 6.4 | 0.00 | 0.79 | 0.79 | 86 | 1005.8 |
| 20260507010122 | 19 | 234 | 1.6 | 6.4 | 0.00 | 0.79 | 0.79 | 88 | 1005.9 |
| 20260507005620 | 20 | 200 | 0.0 | 3.2 | 0.00 | 0.79 | 0.79 | 88 | 1005.9 |
| 20260507005116 | 20 | 337 | 0.0 | 0.0 | 0.00 | 0.79 | 0.79 | 88 | 1005.5 |
| 20260507004613 | 20 | 75 | 0.0 | 3.2 | 0.00 | 0.79 | 0.79 | 88 | 1005.3 |
| 20260507004110 | 20 | 12 | 1.6 | 3.2 | 0.00 | 0.79 | 0.79 | 87 | 1005.3 |
| 20260507003606 | 20 | 33 | 3.2 | 4.8 | 0.00 | 0.79 | 0.79 | 87 | 1005.6 |
| 20260507003101 | 20 | 90 | 0.0 | 1.6 | 0.00 | 0.79 | 0.79 | 87 | 1005.5 |
| 20260507002558 | 20 | 29 | 0.0 | 3.2 | 0.00 | 0.79 | 0.79 | 86 | 1005.4 |
| 20260507002054 | 20 | 0 | 0.0 | 3.2 | 0.00 | 0.79 | 0.79 | 86 | 1005.3 |
| 20260507001551 | 20 | 22 | 3.2 | 3.2 | 0.00 | 0.79 | 0.79 | 86 | 1005.3 |
| 20260507001048 | 20 | 66 | 0.0 | 0.0 | 0.00 | 0.79 | 0.79 | 86 | 1005.3 |
| 20260507000544 | 20 | 66 | 0.0 | 0.0 | 0.00 | 0.79 | 0.79 | 86 | 1005.3 |
| 20260507000040 | 20 | 66 | 0.0 | 1.6 | 0.00 | 0.79 | 0.79 | 85 | 1005.0 |
| 20260506235538 | 20 | 75 | 0.0 | 0.0 | 0.00 | 0.79 | 0.79 | 84 | 1005.0 |
| 20260506235033 | 20 | 75 | 0.0 | 1.6 | 0.00 | 0.79 | 0.79 | 83 | 1004.7 |
| 20260506234531 | 20 | 11 | 0.0 | 0.0 | 0.00 | 0.79 | 0.79 | 83 | 1004.7 |
| 20260506234027 | 20 | 195 | 0.0 | 3.2 | 0.00 | 0.79 | 0.79 | 83 | 1004.8 |
| 20260506233524 | 21 | 106 | 0.0 | 0.0 | 0.00 | 0.79 | 0.79 | 82 | 1004.6 |
| 20260506233021 | 21 | 172 | 0.0 | 0.0 | 0.00 | 0.79 | 0.79 | 82 | 1004.5 |
| 20260506232517 | 21 | 270 | 0.0 | 3.2 | 0.00 | 0.79 | 0.79 | 82 | 1004.4 |
| 20260506232013 | 21 | 245 | 0.0 | 3.2 | 0.00 | 0.79 | 0.79 | 81 | 1004.2 |
| 20260506231511 | 21 | 254 | 0.0 | 3.2 | 0.00 | 0.79 | 0.79 | 81 | 1004.2 |
| 20260506231009 | 21 | 299 | 0.0 | 4.8 | 0.00 | 0.79 | 0.79 | 82 | 1004.3 |
| 20260506230504 | 21 | 18 | 0.0 | 3.2 | 0.00 | 0.79 | 0.79 | 81 | 1004.3 |
| 20260506230002 | 21 | 200 | 0.0 | 6.4 | 0.00 | 0.79 | 0.79 | 81 | 1004.1 |
| 20260506225459 | 21 | 90 | 0.0 | 0.0 | 0.00 | 0.79 | 0.79 | 81 | 1004.4 |
| 20260506224955 | 21 | 180 | 3.2 | 4.8 | 0.00 | 0.79 | 0.79 | 81 | 1004.4 |
| 20260506224452 | 21 | 147 | 0.0 | 8.0 | 0.00 | 0.79 | 0.79 | 80 | 1004.3 |
| 20260506223948 | 21 | 201 | 3.2 | 8.0 | 0.00 | 0.79 | 0.79 | 80 | 1004.4 |
| 20260506223444 | 21 | 206 | 0.0 | 4.8 | 0.00 | 0.79 | 0.79 | 80 | 1004.2 |
| 20260506222942 | 21 | 176 | 0.0 | 4.8 | 0.00 | 0.79 | 0.79 | 79 | 1004.0 |
| 20260506222438 | 21 | 225 | 3.2 | 3.2 | 0.00 | 0.79 | 0.79 | 80 | 1004.2 |
| 20260506221935 | 21 | 344 | 0.0 | 4.8 | 0.00 | 0.79 | 0.79 | 80 | 1004.2 |
| 20260506221432 | 21 | 218 | 0.0 | 6.4 | 0.00 | 0.79 | 0.79 | 79 | 1004.2 |
| 20260506220930 | 21 | 168 | 4.8 | 16.1 | 0.00 | 0.79 | 0.79 | 78 | 1004.2 |
| 20260506220425 | 21 | 331 | 0.0 | 6.4 | 0.00 | 0.79 | 0.79 | 80 | 1004.2 |
| 20260506215922 | 21 | 262 | 6.4 | 6.4 | 0.00 | 0.79 | 0.79 | 79 | 1004.1 |
| 20260506215418 | 21 | 246 | 0.0 | 4.8 | 0.00 | 0.79 | 0.79 | 79 | 1004.2 |
| 20260506214914 | 21 | 295 | 3.2 | 6.4 | 0.00 | 0.79 | 0.79 | 79 | 1004.1 |
| 20260506214411 | 21 | 12 | 0.0 | 11.3 | 0.00 | 0.79 | 0.79 | 80 | 1004.3 |
| 20260506213909 | 21 | 342 | 9.7 | 9.7 | 0.00 | 0.79 | 0.79 | 80 | 1004.1 |
| 20260506213406 | 21 | 243 | 0.0 | 4.8 | 0.00 | 0.79 | 0.79 | 80 | 1004.1 |
| 20260506212904 | 21 | 180 | 3.2 | 8.0 | 0.00 | 0.79 | 0.79 | 80 | 1004.1 |
| 20260506212359 | 21 | 20 | 6.4 | 11.3 | 0.00 | 0.79 | 0.79 | 80 | 1004.3 |
| 20260506211854 | 21 | 342 | 0.0 | 8.0 | 0.00 | 0.79 | 0.79 | 81 | 1004.2 |
| 20260506211350 | 21 | 0 | 3.2 | 8.0 | 0.00 | 0.79 | 0.79 | 80 | 1004.1 |
| 20260506210848 | 20 | 276 | 0.0 | 9.7 | 0.00 | 0.79 | 0.79 | 80 | 1004.3 |
| 20260506210344 | 21 | 10 | 4.8 | 11.3 | 0.00 | 0.79 | 0.79 | 80 | 1004.3 |
| 20260506205842 | 21 | 79 | 0.0 | 8.0 | 0.00 | 0.79 | 0.79 | 80 | 1004.1 |
| 20260506205337 | 21 | 234 | 0.0 | 9.7 | 0.00 | 0.79 | 0.79 | 80 | 1004.0 |
| 20260506204834 | 21 | 295 | 3.2 | 9.7 | 0.00 | 0.79 | 0.79 | 80 | 1004.2 |
| 20260506204332 | 20 | 42 | 0.0 | 6.4 | 0.00 | 0.79 | 0.79 | 80 | 1003.8 |
| 20260506203829 | 21 | 289 | 1.6 | 6.4 | 0.00 | 0.79 | 0.79 | 80 | 1004.0 |
| 20260506203326 | 21 | 255 | 4.8 | 8.0 | 0.00 | 0.79 | 0.79 | 78 | 1004.0 |
| 20260506202823 | 21 | 2 | 4.8 | 8.0 | 0.00 | 0.79 | 0.79 | 80 | 1004.1 |
| 20260506202320 | 21 | 292 | 3.2 | 6.4 | 0.00 | 0.79 | 0.79 | 80 | 1004.0 |
| 20260506201816 | 21 | 290 | 0.0 | 14.5 | 0.00 | 0.79 | 0.79 | 80 | 1003.9 |
| 20260506201314 | 21 | 243 | 1.6 | 9.7 | 0.00 | 0.79 | 0.79 | 80 | 1003.8 |
| 20260506200811 | 20 | 4 | 3.2 | 8.0 | 0.00 | 0.79 | 0.79 | 81 | 1003.8 |
| 20260506200307 | 20 | 348 | 4.8 | 12.9 | 0.00 | 0.79 | 0.79 | 80 | 1004.2 |
| 20260506195803 | 20 | 270 | 1.6 | 8.0 | 0.00 | 0.79 | 0.79 | 81 | 1004.0 |
| 20260506195300 | 20 | 270 | 4.8 | 14.5 | 0.00 | 0.79 | 0.79 | 81 | 1004.0 |
| 20260506194758 | 20 | 0 | 4.8 | 6.4 | 0.00 | 0.79 | 0.79 | 82 | 1004.0 |
| 20260506194254 | 20 | 352 | 4.8 | 8.0 | 0.00 | 0.79 | 0.79 | 82 | 1004.4 |
| 20260506193752 | 20 | 237 | 3.2 | 12.9 | 0.00 | 0.79 | 0.79 | 81 | 1004.2 |
| 20260506193248 | 20 | 264 | 0.0 | 6.4 | 0.00 | 0.79 | 0.79 | 82 | 1004.1 |
| 20260506192744 | 20 | 151 | 1.6 | 8.0 | 0.00 | 0.79 | 0.79 | 82 | 1004.3 |
| 20260506192241 | 20 | 337 | 4.8 | 6.4 | 0.00 | 0.79 | 0.79 | 82 | 1004.4 |
| 20260506191738 | 20 | 244 | 8.0 | 14.5 | 0.00 | 0.79 | 0.79 | 82 | 1004.6 |
| 20260506191234 | 20 | 0 | 0.0 | 4.8 | 0.00 | 0.79 | 0.79 | 82 | 1004.5 |
| 20260506190732 | 20 | 278 | 0.0 | 6.4 | 0.00 | 0.79 | 0.79 | 83 | 1004.5 |
| 20260506190228 | 20 | 270 | 1.6 | 3.2 | 0.00 | 0.79 | 0.79 | 83 | 1004.7 |
| 20260506185725 | 20 | 180 | 0.0 | 6.4 | 0.00 | 0.79 | 0.79 | 84 | 1004.7 |
| 20260506185221 | 20 | 139 | 3.2 | 6.4 | 0.00 | 0.79 | 0.79 | 84 | 1004.8 |
| 20260506184719 | 19 | 187 | 1.6 | 6.4 | 0.00 | 0.79 | 0.79 | 84 | 1004.9 |
| 20260506184216 | 19 | 135 | 3.2 | 6.4 | 0.00 | 0.79 | 0.79 | 85 | 1005.1 |
| 20260506183713 | 19 | 150 | 0.0 | 8.0 | 0.00 | 0.79 | 0.79 | 85 | 1004.8 |
| 20260506183209 | 19 | 319 | 3.2 | 6.4 | 0.00 | 0.79 | 0.79 | 84 | 1005.0 |
| 20260506182706 | 19 | 278 | 4.8 | 9.7 | 0.00 | 0.79 | 0.79 | 84 | 1004.9 |
| 20260506182203 | 18 | 273 | 0.0 | 8.0 | 0.00 | 0.79 | 0.79 | 84 | 1004.9 |
| 20260506181701 | 19 | 66 | 1.6 | 4.8 | 0.00 | 0.79 | 0.79 | 84 | 1004.7 |
| 20260506181158 | 18 | 111 | 1.6 | 9.7 | 0.00 | 0.79 | 0.79 | 85 | 1004.9 |
| 20260506180655 | 18 | 288 | 4.8 | 11.3 | 0.00 | 0.79 | 0.79 | 85 | 1005.0 |
| 20260506180151 | 18 | 270 | 0.0 | 11.3 | 0.00 | 0.79 | 0.79 | 86 | 1005.0 |
| 20260506175647 | 18 | 283 | 1.6 | 8.0 | 0.00 | 0.79 | 0.79 | 85 | 1005.1 |
| 20260506175144 | 18 | 284 | 0.0 | 4.8 | 0.00 | 0.79 | 0.79 | 86 | 1005.0 |
| 20260506174637 | 18 | 0 | 4.8 | 12.9 | 0.00 | 0.79 | 0.79 | 86 | 1005.0 |
| 20260506174134 | 18 | 249 | 1.6 | 9.7 | 0.00 | 0.79 | 0.79 | 86 | 1005.2 |
| 20260506173631 | 18 | 8 | 3.2 | 8.0 | 0.00 | 0.79 | 0.79 | 86 | 1005.2 |
| 20260506173128 | 18 | 248 | 3.2 | 4.8 | 0.00 | 0.79 | 0.79 | 87 | 1005.3 |
| 20260506172625 | 18 | 352 | 0.0 | 8.0 | 0.00 | 0.79 | 0.79 | 87 | 1005.3 |
| 20260506172121 | 18 | 254 | 1.6 | 8.0 | 0.00 | 0.79 | 0.79 | 86 | 1005.3 |
| 20260506171619 | 17 | 12 | 1.6 | 6.4 | 0.00 | 0.79 | 0.79 | 87 | 1005.3 |
| 20260506171116 | 17 | 8 | 4.8 | 14.5 | 0.00 | 0.79 | 0.79 | 87 | 1005.3 |
| 20260506170614 | 17 | 146 | 4.8 | 12.9 | 0.00 | 0.79 | 0.79 | 88 | 1005.3 |
| 20260506170105 | 17 | 273 | 4.8 | 14.5 | 0.00 | 0.79 | 0.79 | 88 | 1005.1 |
| 20260506165604 | 17 | 277 | 0.0 | 19.3 | 0.00 | 0.79 | 0.79 | 88 | 1005.4 |
| 20260506165059 | 17 | 34 | 4.8 | 6.4 | 0.00 | 0.79 | 0.79 | 89 | 1005.3 |
| 20260506164557 | 17 | 32 | 3.2 | 8.0 | 0.00 | 0.79 | 0.79 | 90 | 1005.3 |
| 20260506164054 | 17 | 212 | 3.2 | 8.0 | 0.00 | 0.79 | 0.79 | 89 | 1005.4 |
| 20260506163549 | 17 | 140 | 3.2 | 9.7 | 0.00 | 0.79 | 0.79 | 89 | 1005.4 |
| 20260506163045 | 17 | 349 | 3.2 | 11.3 | 0.00 | 0.79 | 0.79 | 90 | 1005.3 |
| 20260506162541 | 17 | 90 | 0.0 | 16.1 | 0.00 | 0.79 | 0.79 | 90 | 1005.6 |
| 20260506162033 | 17 | 0 | 3.2 | 12.9 | 0.00 | 0.79 | 0.79 | 91 | 1005.6 |
| 20260506161531 | 17 | 8 | 4.8 | 12.9 | 0.00 | 0.79 | 0.79 | 93 | 1005.4 |